Location: Ferintosh
(52.7647°N, 112.9692°W)
Time: 01:41:27
(UTC+00:00)

S-56A Canister/Altair - Pass Details

Date: 23 May 2024
Orbit: 637 x 2489 km, 38.9° (Epoch: 20 June)

Event Time Altitude Azimuth Distance (km) Brightness Sun altitude
Rises 18:37:54 0° 267° (W) 4,676 11.4 56.5°
Reaches altitude 10° 18:42:58 10° 247° (WSW) 3,265 10.9 56.8°
Maximum altitude 18:46:56 15° 216° (SW) 2,585 10.7 57.0°
Drops below altitude 10° 18:50:17 10° 184° (S) 2,652 11.0 57.2°
Sets 18:53:42 0° 160° (SSE) 3,333 11.3 57.3°
